This is the latest recevied weather packets stored in our database for station/object KD9WYV. If no packets are shown the sender has not sent any weather packets the latest 1 day(s).
| Time | Temp. | Humidity | Pressure | Rain* | Wind** | Luminosity | Snow |
|---|---|---|---|---|---|---|---|
| 1778032086 | 8.33° C | 97% | 1008.9 hPa | 1.27 mm | 0.45 m/s, 14° | 0 W/m² | - |
| 1778031783 | 8.33° C | 97% | 1009.4 hPa | 0 mm | 0.45 m/s, 1° | 0 W/m² | - |
| 1778031480 | 8.33° C | 97% | 1009.2 hPa | 0 mm | 0.89 m/s, 5° | 0 W/m² | - |
| 1778031177 | 8.33° C | 97% | 1008.9 hPa | 1.78 mm | 0.45 m/s, 7° | 0 W/m² | - |
| 1778030874 | 8.33° C | 97% | 1008.9 hPa | 1.78 mm | 1.79 m/s, 51° | 0 W/m² | - |
| 1778030571 | 8.33° C | 97% | 1008.7 hPa | 3.05 mm | 1.34 m/s, 60° | 0 W/m² | - |
| 1778030268 | 8.33° C | 97% | 1008.7 hPa | 3.05 mm | 0.89 m/s, 91° | 0 W/m² | - |
| 1778029964 | 7.78° C | 97% | 1008.8 hPa | 1.78 mm | 0 m/s | 0 W/m² | - |
| 1778029663 | 7.78° C | 97% | 1009 hPa | 1.27 mm | 0.45 m/s, 355° | 0 W/m² | - |
| 1778029359 | 7.78° C | 96% | 1008.9 hPa | 1.27 mm | 0 m/s | 0 W/m² | - |
| 1778029057 | 7.78° C | 96% | 1009.1 hPa | 1.78 mm | 0.45 m/s, 341° | 0 W/m² | - |
| 1778028753 | 7.78° C | 96% | 1009.2 hPa | 1.78 mm | 0.89 m/s, 357° | 0 W/m² | - |
| 1778028449 | 7.78° C | 96% | 1009.3 hPa | 3.05 mm | 0 m/s | 0 W/m² | - |
| 1778028147 | 7.78° C | 96% | 1009.1 hPa | 4.32 mm | 1.34 m/s, 354° | 1 W/m² | - |
| 1778027843 | 7.78° C | 96% | 1009.2 hPa | 3.05 mm | 0 m/s | 1 W/m² | - |
| 1778027540 | 7.78° C | 96% | 1009.2 hPa | 4.83 mm | 1.34 m/s, 352° | 1 W/m² | - |
| 1778027235 | 7.78° C | 96% | 1008.8 hPa | 3.05 mm | 0.89 m/s, 313° | 2 W/m² | - |
| 1778026932 | 7.78° C | 96% | 1009 hPa | 3.05 mm | 0.45 m/s, 17° | 2 W/m² | - |
| 1778026628 | 7.78° C | 96% | 1008.9 hPa | 3.05 mm | 0.45 m/s, 344° | 2 W/m² | - |
| 1778026325 | 7.78° C | 96% | 1008.9 hPa | 3.05 mm | 0.45 m/s, 84° | 5 W/m² | - |
| 1778026022 | 7.78° C | 96% | 1008.7 hPa | 1.78 mm | 0 m/s | 6 W/m² | - |
| 1778025720 | 7.78° C | 96% | 1008.8 hPa | 3.05 mm | 0.89 m/s, 351° | 9 W/m² | - |
| 1778025417 | 8.33° C | 96% | 1009.2 hPa | 3.05 mm | 0.89 m/s, 357° | 7 W/m² | - |
| 1778025115 | 8.33° C | 96% | 1009.1 hPa | 4.83 mm | 0.45 m/s, 29° | 6 W/m² | - |
| 1778024811 | 8.33° C | 96% | 1009.3 hPa | 4.32 mm | 0.45 m/s, 336° | 11 W/m² | - |
* Rain latest hour (hover to see other rain measurements)
** Current wind speed in m/s (hover to see current wind gust speed)